Theta_e
296 289 287 287 291 292 292 292 293 293 292 291 289 288 288 288 289 293 294 292 292 290 289 291 291 292 293 294 295 296 296 294 294 294 295 296 296 297 298 298 298 298 299 301 298 298 298 298 299 298 297 296 295 295 294 293 293 292 292 291 291 292 292 292 291 291 290 289 288 287 288 288 289 289 288 288 287 287 287 288 288 288 287 287 287 286
296 288 288 292 294 293 293 294 293 292 292 291 290 288 289 288 289 293 294 293 291 291 288 290 291 291 292 294 295 296 293 294 295 294 294 295 296 297 297 298 298 299 300 298 295 296 296 297 297 296 296 295 294 293 293 293 292 292 292 291 292 292 292 292 292 291 291 290 290 289 289 289 289 288 288 287 287 288 288 288 288 287 286 287 286 286
289 288 291 294 296 294 292 292 292 292 291 291 289 288 287 288 290 293 292 292 290 289 289 288 288 290 292 293 295 295 294 296 297 297 297 297 297 297 298 298 299 299 298 295 296 295 296 296 296 295 295 295 295 294 293 293 292 292 292 292 292 292 291 292 292 292 291 290 290 289 288 289 287 288 288 287 287 288 287 287 287 287 286 286 286 286
286 289 294 295 295 293 293 292 291 290 290 289 288 285 287 290 287 288 290 289 290 290 284 285 287 289 291 293 294 296 296 296 298 298 298 299 298 298 299 300 300 298 296 296 296 294 294 295 295 294 294 294 294 293 292 292 292 292 292 292 292 291 291 291 292 292 291 290 288 287 288 287 287 286 287 286 286 286 286 286 287 287 286 286 286 285
290 291 295 295 295 294 292 293 291 288 289 290 290 288 289 289 290 289 290 288 288 289 290 288 287 288 290 291 293 296 297 297 297 298 298 299 299 300 300 300 300 299 298 296 294 293 293 293 294 294 294 294 293 293 292 292 292 293 292 292 292 292 291 291 292 292 290 289 287 287 287 287 286 286 285 285 284 285 286 286 286 286 286 286 285 285
291 292 293 294 293 293 292 291 290 289 288 289 289 290 291 292 290 290 290 288 285 284 288 288 284 285 288 291 292 295 291 291 295 295 296 297 298 298 297 298 300 299 298 297 296 295 294 294 294 292 292 292 293 292 293 293 293 293 292 292 292 292 291 291 291 291 290 289 288 286 286 285 285 284 284 284 285 285 285 286 286 286 286 286 285 285
291 293 295 294 292 291 291 290 289 291 290 288 285 291 292 291 290 288 287 287 281 281 287 289 283 283 284 286 289 290 290 292 292 293 295 296 297 297 297 298 297 297 295 295 295 294 293 293 293 292 292 292 292 293 293 293 293 292 292 292 292 291 291 291 291 291 290 289 288 288 287 287 286 285 286 286 286 286 286 286 285 286 285 286 285 284
292 290 291 293 292 291 289 288 291 292 290 287 287 289 289 289 287 288 288 287 285 284 287 287 283 281 285 289 290 291 292 291 292 294 294 295 296 297 298 298 297 295 296 297 296 294 294 293 293 292 292 292 293 293 292 292 292 292 292 291 291 291 291 291 291 290 290 289 288 288 287 287 287 286 286 286 286 286 286 285 285 285 285 285 285 284
291 290 289 290 289 287 289 293 291 293 290 287 289 290 290 290 289 288 287 284 282 282 282 283 287 284 283 286 292 293 289 290 291 293 294 295 296 297 298 298 298 295 298 297 296 294 293 293 293 294 292 293 292 292 292 291 292 292 291 291 291 291 291 290 290 290 290 290 289 288 287 287 287 287 286 286 286 286 285 285 284 284 284 284 284 284
292 291 291 292 289 289 291 288 291 293 290 290 290 289 289 288 287 288 285 286 280 278 280 281 286 281 283 289 285 286 287 288 290 293 294 295 296 298 298 298 298 295 296 297 297 296 295 294 294 293 293 292 292 292 292 291 291 291 291 291 291 290 291 290 290 290 289 289 289 288 287 287 286 286 284 285 284 284 284 284 284 284 284 284 283 283
291 291 294 292 290 291 287 287 287 289 292 291 290 289 284 282 283 281 280 278 280 277 281 283 285 285 280 286 285 284 285 289 291 292 293 294 295 296 296 296 297 296 297 297 296 295 295 293 293 292 292 291 291 290 291 291 290 290 291 290 290 290 291 290 290 289 289 289 289 288 288 287 286 285 284 284 284 284 284 283 283 283 284 284 283 283
290 291 291 289 292 290 289 288 288 289 289 291 287 283 283 283 279 279 277 279 276 278 281 285 285 285 279 280 284 290 290 292 293 291 293 293 294 295 297 297 297 296 297 296 295 294 292 291 291 291 291 291 290 290 290 290 290 290 290 290 290 290 290 290 290 289 289 289 289 288 288 287 287 286 285 284 284 284 284 284 283 283 283 283 283 282
286 288 289 292 292 294 288 290 285 284 288 289 284 284 280 275 276 273 274 273 272 279 279 283 285 281 282 287 285 287 289 290 291 293 294 294 295 294 296 297 297 296 295 296 296 294 293 293 291 291 291 290 290 290 290 290 290 290 290 289 289 289 290 290 289 289 289 289 288 288 288 287 287 286 286 285 285 284 284 284 283 282 282 282 281 281
284 286 289 290 290 292 293 288 283 284 286 287 286 282 280 274 272 270 271 271 273 279 281 282 283 283 286 285 291 293 294 292 293 294 294 295 295 294 295 296 296 295 296 297 297 295 294 293 292 292 292 291 291 290 290 290 290 290 290 289 289 290 290 290 289 289 288 288 289 288 288 288 287 286 286 286 285 285 285 284 283 283 283 282 282 282
280 284 287 289 286 291 294 293 292 290 285 288 285 287 285 280 271 270 273 277 279 280 276 280 280 276 275 282 289 294 296 296 294 295 295 294 294 294 294 293 293 295 295 296 296 296 295 294 293 292 292 292 291 291 290 290 290 290 289 289 289 289 289 289 289 289 288 289 288 288 288 288 287 287 286 286 286 285 284 284 284 283 283 282 282 282
285 286 286 294 289 291 291 294 294 288 285 284 284 285 280 282 283 282 284 278 275 275 278 275 280 278 284 287 288 290 291 291 291 293 293 293 293 292 292 294 295 295 296 296 296 296 295 294 293 292 292 292 291 290 290 290 290 289 290 289 289 289 289 289 289 289 289 289 288 288 287 287 287 287 286 286 285 285 285 284 284 283 283 282 282 281
284 282 287 290 288 288 287 287 292 292 281 283 286 281 286 284 286 282 281 279 276 275 279 277 280 284 284 289 291 293 291 291 291 291 291 292 293 292 293 294 293 295 295 295 296 296 295 293 292 292 292 291 291 290 290 290 290 290 290 290 289 289 289 289 289 289 289 289 288 287 287 287 286 286 286 286 285 284 284 284 283 283 282 281 281 281
286 287 289 288 287 287 284 286 288 286 288 284 280 284 287 286 284 282 275 274 274 272 279 277 279 282 280 280 284 286 288 289 290 291 291 293 294 292 294 294 295 295 296 296 296 295 295 294 293 293 292 292 292 291 291 291 291 291 290 290 289 289 288 289 289 288 288 288 288 287 287 287 286 286 286 285 284 284 283 283 282 282 281 280 280 281
291 284 288 287 286 287 286 289 288 287 288 283 282 286 285 279 279 281 278 276 276 276 278 281 282 281 282 283 285 286 285 288 290 292 292 292 293 292 294 293 294 294 294 295 295 295 294 294 294 293 293 293 292 291 291 291 290 290 289 290 289 289 289 289 289 288 288 288 288 288 287 286 286 286 286 285 284 283 283 282 282 281 281 280 280 280
290 285 286 286 287 287 284 285 281 284 287 287 287 283 283 281 277 277 283 279 280 278 279 279 283 280 286 283 287 286 288 289 290 291 292 293 294 294 295 293 292 293 295 296 296 295 295 295 294 294 293 292 292 291 291 290 290 289 290 289 289 289 288 288 288 288 288 288 288 287 287 286 286 285 285 284 283 282 282 282 281 280 279 279 279 279
287 288 282 286 284 287 284 284 282 285 283 283 284 280 282 280 282 282 282 281 281 279 279 278 277 283 285 285 287 288 288 289 290 291 292 292 293 294 295 295 293 293 295 295 296 296 296 295 294 294 293 293 291 290 289 289 289 290 289 288 289 288 288 288 288 288 288 287 287 286 285 285 285 284 284 283 283 282 282 281 281 280 280 279 279 278
286 285 284 283 282 283 288 289 288 289 290 287 287 285 286 281 280 279 279 284 280 280 278 278 277 285 289 289 288 287 287 289 289 291 292 291 293 293 295 295 295 294 294 295 295 295 295 295 294 294 292 289 288 289 289 290 288 287 288 289 289 288 288 287 287 287 287 287 286 286 285 284 284 284 283 282 282 282 281 280 280 279 278 278 278 278
290 285 285 283 284 287 289 289 288 289 289 287 289 286 288 287 285 282 278 282 281 281 284 283 281 283 293 289 289 287 288 289 290 290 291 291 292 294 294 293 291 292 294 296 296 296 295 295 295 294 293 292 292 292 291 290 289 289 288 288 288 288 288 288 288 287 287 286 285 285 284 283 283 283 282 282 281 281 280 280 279 279 278 278 277 277
293 288 284 285 288 286 289 288 286 287 287 285 285 286 286 286 286 285 284 285 284 283 281 282 279 283 293 289 292 290 287 288 289 289 290 292 293 293 291 290 291 290 291 291 293 294 295 293 291 290 290 291 291 291 291 290 289 289 288 288 288 288 288 288 287 287 286 285 284 284 283 282 282 281 281 281 281 280 280 279 278 278 278 277 277 276
288 286 286 282 282 283 285 288 289 286 285 282 284 286 287 289 287 287 286 284 282 283 284 281 276 282 291 288 286 286 285 288 289 291 291 292 292 291 291 292 292 292 291 290 291 292 292 289 291 293 293 293 293 292 291 291 290 289 289 288 288 288 288 288 286 285 285 284 283 282 282 282 282 281 281 281 280 280 279 278 278 278 277 276 276 276
288 287 286 280 277 275 275 278 279 283 283 283 281 285 286 286 286 282 281 283 279 283 284 281 281 287 291 293 292 292 290 289 290 289 289 288 288 289 289 289 290 289 290 291 292 291 291 293 293 292 292 292 291 291 291 291 290 290 289 288 288 288 287 287 285 285 284 283 283 282 282 282 281 281 281 281 280 279 278 278 277 277 276 276 276 275
285 287 287 286 283 281 284 286 287 283 280 279 282 283 284 286 287 287 285 282 280 282 282 283 284 285 287 289 291 292 293 293 293 294 293 293 292 290 288 290 291 292 293 293 294 294 291 289 290 291 291 291 291 291 291 291 290 289 289 288 287 287 287 286 285 284 284 283 283 282 282 281 281 281 281 280 279 278 278 277 277 276 276 276 276 275
284 284 286 287 286 287 289 288 290 290 285 285 283 283 283 283 284 283 282 281 286 282 279 285 286 284 286 289 291 292 293 293 294 294 294 294 294 295 293 292 293 293 291 288 289 290 292 293 292 290 290 290 291 291 290 290 289 289 288 288 287 286 285 285 284 284 283 283 282 282 282 282 281 281 280 280 278 278 277 277 276 276 276 275 275 274
284 283 286 286 285 288 289 289 290 289 288 287 286 286 285 285 283 281 283 285 285 282 280 285 286 284 286 289 291 292 293 293 294 294 295 296 295 295 293 289 290 291 290 288 289 292 293 293 293 293 291 291 290 290 290 289 288 287 286 286 285 285 285 284 284 283 283 282 282 282 282 281 280 280 279 278 278 277 276 276 276 275 274 274 274 274
287 284 286 286 285 286 287 288 289 287 287 287 286 286 287 286 285 285 284 286 285 284 286 286 286 286 289 290 292 293 295 295 295 296 296 295 295 295 295 294 294 294 291 288 291 292 293 294 294 293 293 292 291 291 290 289 288 286 286 286 285 285 284 284 283 283 282 282 282 282 281 280 280 279 278 277 277 276 276 275 275 274 273 273 273 272
287 283 288 285 283 283 286 287 287 286 286 284 286 287 287 287 287 287 286 286 286 285 286 286 285 285 290 293 293 295 295 296 295 294 295 295 296 295 295 295 295 295 295 292 292 293 293 293 293 292 292 292 292 291 291 290 289 287 286 285 284 284 284 284 283 283 282 282 282 281 280 279 279 278 277 277 276 276 275 274 274 273 273 272 272 272
286 283 287 285 281 281 285 284 285 285 285 284 284 285 285 285 283 285 284 286 285 283 285 285 283 284 290 293 293 294 294 293 293 294 295 295 296 295 294 294 293 293 293 293 293 292 292 291 292 292 292 292 292 292 291 290 289 286 286 285 284 284 283 283 283 283 282 282 281 280 280 279 278 277 277 276 275 275 274 273 272 272 272 271 271 271
284 282 282 283 280 279 285 286 284 284 282 279 281 284 286 286 287 288 288 288 288 288 284 282 283 289 291 292 291 292 292 293 293 294 294 295 296 295 295 294 292 293 293 294 292 290 291 292 292 292 292 291 291 291 291 291 290 287 287 285 284 283 282 283 283 282 282 281 280 280 279 278 277 276 276 275 275 274 273 272 272 271 271 271 271 271
285 284 283 285 280 280 285 284 284 280 274 276 288 290 289 287 287 285 285 287 289 290 287 289 289 291 291 291 291 291 292 293 294 296 297 296 295 295 295 294 293 293 294 293 293 292 292 292 292 292 292 292 292 291 292 291 290 290 288 286 283 283 282 282 282 282 281 280 280 279 278 277 276 276 275 274 273 273 272 271 271 271 271 271 270 270
285 285 283 285 281 280 285 284 280 274 275 287 291 292 292 291 290 289 289 290 290 291 291 290 290 290 291 293 293 293 295 296 297 296 296 296 295 295 295 296 296 294 292 292 292 292 292 292 292 292 291 290 290 290 289 288 288 287 283 283 282 282 281 281 281 281 280 279 279 278 277 276 275 275 274 273 272 272 271 271 271 270 270 270 270 269
285 285 284 283 284 284 281 280 273 275 284 285 290 291 292 292 291 290 287 290 291 291 291 290 291 292 292 293 294 295 295 295 296 296 295 296 296 295 294 295 295 295 294 294 293 294 294 293 291 291 292 292 290 289 288 290 288 285 283 282 282 281 281 281 280 280 279 278 278 277 277 275 274 274 273 272 272 271 271 271 270 269 269 269 269 269
288 287 286 281 285 278 280 280 279 286 285 283 284 285 288 285 286 285 282 285 291 291 291 290 291 292 292 293 294 294 295 293 291 292 294 292 290 291 291 291 292 292 293 293 292 292 293 292 291 291 291 290 289 289 289 288 285 284 281 280 280 280 280 280 279 279 278 278 277 276 276 275 274 273 272 272 271 271 270 270 269 269 269 268 268 269
290 285 286 283 280 286 279 278 279 278 275 281 289 290 293 293 292 291 287 284 289 289 290 290 290 290 288 288 288 289 289 287 286 288 288 289 290 290 290 290 290 290 290 290 291 290 290 290 290 289 288 289 289 289 288 284 283 282 280 280 279 279 278 278 279 279 278 278 277 276 276 275 274 273 272 271 271 270 270 270 269 268 268 268 268 268
289 290 288 284 281 283 280 276 276 276 278 287 288 291 292 292 292 290 284 280 284 283 286 285 283 284 284 284 284 286 284 281 282 284 288 288 288 288 288 289 289 289 290 290 288 287 287 288 288 288 287 286 287 285 282 281 281 281 281 280 279 279 278 278 279 279 278 278 277 276 275 275 274 273 272 271 271 270 269 269 268 268 268 268 268 268
284 285 285 282 280 282 280 277 276 281 279 279 280 285 289 291 291 285 276 276 282 283 284 284 282 282 282 282 283 282 282 279 280 284 287 287 287 287 287 286 287 288 289 290 290 287 285 285 286 287 286 284 284 281 281 281 280 280 280 279 277 278 278 279 279 280 278 277 276 275 275 274 273 273 272 271 270 270 269 269 268 267 268 268 268 267
280 281 283 278 281 281 282 278 282 282 284 280 281 284 286 287 286 278 274 279 283 283 283 282 281 281 281 280 281 278 281 283 284 285 286 286 285 285 285 286 286 286 287 288 288 288 287 287 285 285 285 284 282 280 280 280 280 280 278 277 277 277 279 278 277 276 276 275 274 274 274 274 273 272 271 271 270 269 268 268 268 267 267 267 267 266
275 280 279 282 278 278 280 278 278 282 280 281 282 285 284 285 280 274 278 284 284 282 282 282 281 281 281 280 280 280 282 283 284 284 283 283 283 283 284 284 285 286 287 288 288 288 288 287 287 287 287 283 279 279 279 280 280 279 277 276 277 278 276 275 275 275 274 273 273 272 272 272 272 271 270 269 269 268 267 267 267 267 267 266 266 265
274 275 271 274 279 280 279 277 276 272 279 282 282 281 282 272 273 280 283 285 285 282 281 281 281 280 282 280 281 281 281 282 282 282 283 283 283 283 283 283 284 284 286 287 288 289 289 288 288 289 287 284 279 279 280 281 281 280 278 277 279 276 274 274 274 274 273 272 271 271 270 270 270 269 269 268 268 267 266 266 266 266 266 266 265 265
279 272 273 276 279 271 271 272 273 276 278 284 281 274 278 280 282 284 284 281 283 282 281 281 280 281 282 281 281 281 282 282 282 283 283 283 284 284 284 284 285 285 285 287 287 288 288 288 289 289 288 284 279 279 281 281 282 280 279 280 276 274 274 274 273 273 272 270 270 269 268 268 268 268 267 267 267 267 266 265 265 265 265 265 265 264
284 274 275 271 278 275 271 276 279 280 282 284 283 281 282 283 286 285 284 281 280 280 282 280 280 281 281 281 281 281 281 282 282 283 283 283 284 285 285 285 286 286 286 286 287 287 287 288 288 288 287 285 280 279 280 281 282 281 279 280 276 275 273 272 272 272 271 269 268 268 267 266 266 266 266 266 267 266 266 265 264 264 264 265 265 264
278 278 280 277 275 280 281 281 280 280 281 281 282 283 282 283 285 285 283 280 281 281 281 280 281 281 282 282 281 281 281 282 282 283 283 284 284 285 285 285 286 286 287 287 287 288 288 288 288 287 286 287 283 278 279 280 282 282 283 277 276 275 274 272 271 271 270 269 268 268 267 266 266 266 266 266 267 267 266 265 264 264 264 264 265 264
277 279 277 274 276 273 268 278 277 278 280 280 280 282 285 286 285 285 282 281 280 281 281 282 282 281 281 281 281 280 280 281 281 282 283 283 283 283 284 284 284 285 285 285 286 287 287 287 287 287 287 286 287 282 280 280 281 283 282 277 277 275 273 272 272 271 269 268 267 267 266 266 266 265 266 266 266 266 266 265 265 264 264 264 264 265
271 278 273 273 273 272 271 277 278 279 279 280 279 278 281 280 279 280 281 280 281 281 281 281 281 280 281 280 280 280 280 281 281 281 281 282 282 282 282 283 283 284 285 285 286 286 286 287 287 287 287 287 288 286 283 281 281 282 282 278 276 274 272 271 271 270 269 268 267 266 266 266 265 265 265 265 265 265 264 265 265 264 264 265 265 266
274 276 268 271 271 273 276 277 278 279 278 277 278 278 279 279 279 279 279 279 279 278 279 280 280 279 279 279 280 279 279 279 280 280 280 280 280 281 281 282 283 283 283 284 285 286 286 286 286 287 287 287 288 287 285 283 282 282 281 278 275 273 272 271 270 270 269 267 266 265 265 266 265 265 265 265 264 265 265 264 265 265 266 267 268 268
272 269 273 272 268 269 269 272 275 270 270 275 276 277 278 279 278 277 278 277 278 277 277 277 277 278 278 278 278 278 277 277 278 279 278 278 279 280 280 281 281 282 282 284 285 285 285 285 285 286 286 287 287 287 286 284 282 281 280 277 274 273 272 271 270 269 267 266 265 265 264 264 264 264 264 264 264 263 264 267 269 267 266 267 270 271
273 273 273 270 269 269 274 276 276 274 274 275 276 277 278 278 277 275 276 276 276 276 276 275 274 274 275 276 277 276 276 276 276 277 276 277 277 278 279 279 279 280 280 282 282 282 283 284 284 285 285 286 286 286 285 284 282 279 277 276 274 273 273 271 269 268 267 265 265 264 264 264 263 264 264 264 263 263 263 265 268 271 271 270 271 272
Wind_Speed
5 7 8 9 14 13 9 12 17 16 8 9 6 6 11 11 11 11 12 6 6 3 10 15 17 16 17 18 17 17 12 8 11 12 13 13 13 14 14 15 16 16 19 14 7 11 13 14 13 11 11 11 11 12 14 14 14 15 16 14 15 13 13 12 12 11 12 12 8 6 10 11 10 10 8 8 7 8 8 9 9 9 8 8 7 7
5 8 10 15 17 12 11 12 11 10 8 11 12 10 12 6 15 13 12 2 4 6 5 11 15 16 18 18 17 11 6 14 16 13 14 17 15 15 16 18 19 19 12 7 5 6 8 9 10 10 10 11 13 11 13 16 16 14 14 16 14 12 13 14 14 13 13 13 14 14 13 11 10 10 10 11 9 9 8 9 9 9 8 8 8 8
7 12 14 18 11 7 6 6 8 11 11 11 11 10 9 10 12 12 7 6 3 5 12 7 12 15 16 17 15 12 12 14 15 14 16 16 15 14 15 18 19 15 14 7 8 7 10 11 11 11 12 13 17 16 17 16 15 15 15 15 14 14 14 13 13 12 13 10 7 8 7 10 7 4 4 4 6 6 8 8 8 8 8 9 8 8
10 8 16 9 8 10 11 6 7 7 7 8 9 7 12 8 5 14 5 0 3 8 4 5 11 10 8 12 15 14 12 14 16 15 15 15 16 17 19 20 18 15 12 12 11 10 9 11 12 10 11 13 12 12 11 14 17 15 15 15 15 14 14 13 13 12 9 8 5 4 4 4 4 4 4 4 4 5 6 7 8 8 9 9 9 8
19 3 9 10 11 11 14 10 7 7 12 10 13 10 10 10 12 11 11 1 2 4 3 8 11 13 9 16 15 15 16 15 14 15 16 17 15 17 17 17 18 19 14 11 7 6 8 10 13 16 14 11 13 14 15 15 16 13 17 16 15 14 15 13 13 12 9 8 6 6 6 4 4 4 5 5 6 8 8 7 9 11 9 9 8 8
15 5 4 9 11 11 12 10 8 7 13 13 7 11 16 13 13 12 10 8 4 6 4 2 8 13 9 19 20 12 4 7 11 13 18 18 17 17 16 20 22 14 9 11 11 13 14 15 10 7 9 13 13 15 15 15 16 14 13 13 13 12 12 13 13 13 11 12 12 10 10 10 9 8 10 14 16 13 13 14 9 7 9 10 9 8
6 6 9 9 7 11 9 9 6 11 14 12 7 13 14 11 11 7 8 2 7 7 4 3 7 17 5 6 8 7 7 13 7 10 15 13 14 14 15 17 14 13 6 6 6 8 9 10 10 11 13 15 15 15 12 12 13 13 13 14 15 14 12 12 13 14 12 12 12 16 16 14 15 15 12 10 8 11 9 7 10 10 8 9 10 8
5 4 8 10 12 11 7 7 9 14 10 11 2 7 7 7 6 7 6 7 9 1 2 0 3 7 21 9 7 9 12 12 11 12 11 11 13 15 16 14 12 8 7 10 12 12 13 14 16 18 17 14 16 12 11 12 11 14 14 15 15 12 12 12 13 15 15 15 14 14 14 13 13 14 13 12 10 8 7 9 9 8 9 9 9 9
4 1 6 8 7 6 10 17 2 10 8 5 1 5 3 5 5 1 2 4 3 4 9 7 2 6 14 5 14 15 13 11 14 14 14 14 14 17 17 13 14 7 10 11 11 12 13 15 15 14 14 13 10 11 13 13 13 12 12 14 13 14 13 13 15 15 15 14 15 15 13 13 12 10 7 7 6 8 8 10 8 8 8 8 8 9
2 2 5 6 6 10 7 1 8 11 8 3 2 4 4 3 2 1 1 0 3 2 12 7 8 7 21 18 3 2 7 11 11 15 17 15 15 18 16 12 14 6 7 9 12 13 13 14 14 12 9 10 12 10 10 11 11 12 12 14 15 15 13 13 15 16 16 15 13 14 15 16 12 9 6 8 9 9 9 11 10 9 9 9 8 9
3 1 4 5 8 4 3 1 1 1 1 2 3 2 4 5 2 2 3 2 4 9 10 13 10 10 14 14 9 7 8 11 11 8 8 8 11 14 13 11 12 10 8 8 8 8 9 7 6 8 12 12 8 8 10 10 11 11 13 14 16 17 13 13 16 16 18 16 14 15 16 17 15 13 11 10 10 9 10 11 11 11 10 9 10 8
3 1 2 4 4 3 3 2 4 1 0 1 1 2 4 6 5 2 3 2 3 14 4 14 14 15 14 4 2 3 1 10 13 11 11 11 14 15 13 13 14 12 8 6 6 7 5 5 6 7 9 11 11 8 11 11 11 12 12 13 15 14 16 15 15 16 17 16 16 15 15 16 15 14 13 15 15 14 15 13 12 10 8 9 8 8
7 13 5 2 4 11 3 2 2 3 2 3 4 5 2 5 5 3 2 2 7 13 3 10 11 1 22 10 0 4 1 4 6 9 12 13 14 13 12 15 13 8 5 7 8 8 8 11 12 12 11 9 12 15 15 13 12 11 12 14 16 17 16 16 16 18 18 16 17 17 17 16 13 14 15 14 14 13 13 12 12 12 12 9 9 10
8 3 5 5 3 6 8 8 1 2 7 7 8 6 5 4 4 5 6 4 5 7 6 8 4 14 8 5 11 15 16 12 11 12 12 13 14 14 13 14 12 6 8 9 9 10 11 11 12 13 13 14 13 12 14 13 13 13 13 15 17 19 16 15 15 17 17 19 18 16 15 14 13 14 14 13 13 13 12 11 13 14 14 13 14 13
5 10 8 9 5 6 14 13 17 10 7 12 4 11 12 8 4 3 5 10 11 11 3 2 6 8 2 6 7 17 17 15 12 12 13 13 13 12 11 10 6 4 5 7 9 11 13 12 12 12 13 13 13 13 13 13 14 12 13 15 19 17 16 17 18 15 18 18 17 15 14 13 12 14 13 12 11 12 13 11 13 12 11 12 12 12
10 14 5 15 1 9 13 13 6 4 2 3 4 3 2 8 6 10 7 5 4 6 9 3 7 5 6 1 3 5 6 5 6 10 10 12 11 9 8 13 8 5 7 8 9 9 9 10 10 9 10 11 11 12 12 13 12 14 17 17 19 20 18 18 17 17 19 17 14 14 15 16 13 11 10 9 9 11 12 13 13 13 12 10 10 8
1 7 1 3 6 5 4 3 5 7 6 3 8 7 13 2 5 6 5 3 0 1 18 2 7 9 7 13 10 16 10 9 8 10 9 11 12 11 10 13 5 7 7 7 9 10 10 7 7 10 10 10 9 10 15 17 18 21 19 17 18 18 14 15 18 19 16 15 14 16 16 13 13 14 15 15 13 12 11 11 11 11 11 9 9 9
9 9 1 5 4 2 2 0 0 3 3 8 3 9 0 2 3 4 4 3 2 6 12 2 9 13 5 14 3 4 3 8 7 10 11 14 15 12 14 10 9 10 11 10 8 7 7 8 10 10 9 11 14 17 16 17 16 15 14 16 17 15 16 18 17 17 16 16 17 15 15 15 15 14 14 12 12 10 10 10 9 8 9 11 10 10
4 11 6 2 2 4 2 1 3 2 1 3 4 2 4 4 3 2 3 4 6 9 9 13 13 12 11 14 6 9 6 8 12 13 14 14 13 12 13 10 6 5 4 5 8 8 9 9 10 12 13 13 13 11 12 12 11 9 10 12 13 17 19 18 14 12 11 12 12 13 15 16 14 12 11 10 9 10 12 13 11 11 11 9 10 10
0 9 3 1 3 1 2 2 6 3 1 2 2 2 0 0 3 5 7 3 3 14 10 17 17 16 6 3 7 10 11 13 13 13 11 13 14 13 12 7 6 7 8 9 9 10 10 11 12 13 13 14 15 14 14 13 11 13 15 12 12 12 9 9 13 15 15 16 13 12 11 12 13 12 12 11 11 12 13 12 12 11 11 12 10 10
7 2 11 1 3 1 3 4 7 9 7 2 1 3 2 1 4 2 2 3 7 10 10 10 14 16 6 3 2 8 8 9 11 12 11 11 10 13 13 12 10 10 10 10 9 9 11 12 11 11 11 11 8 7 6 8 14 16 11 11 12 15 16 15 15 13 14 12 13 13 14 15 13 13 11 10 12 12 11 11 11 11 11 9 11 11
1 1 11 1 1 6 13 4 13 13 13 10 13 11 12 6 5 8 13 3 4 8 9 9 15 11 11 1 1 4 4 6 8 9 12 10 12 11 12 14 16 13 11 10 10 10 11 10 10 9 6 4 5 6 9 11 8 7 12 16 15 13 12 14 14 15 16 14 12 13 13 11 9 9 9 11 11 12 11 11 12 11 10 12 10 11
5 2 3 7 7 9 8 4 4 7 6 5 9 8 9 7 5 8 16 10 4 5 5 10 13 14 14 2 1 2 3 5 6 8 9 7 7 12 15 12 8 6 7 9 10 10 10 10 11 11 10 11 13 14 14 11 12 14 15 13 12 14 16 15 15 12 10 10 12 13 10 8 9 10 11 12 11 12 12 11 11 11 13 12 10 9
6 4 5 10 6 5 9 1 3 2 2 2 5 5 6 12 14 12 11 8 11 5 7 9 13 10 16 6 8 6 5 6 8 7 9 8 9 13 12 9 9 7 6 5 6 6 8 6 4 4 6 9 10 11 12 13 13 12 12 13 13 15 17 15 13 12 11 11 11 10 10 11 10 11 12 14 13 14 12 11 11 11 12 11 10 12
4 2 7 8 4 5 7 11 16 2 2 4 7 10 14 14 10 10 6 2 11 15 17 13 17 10 14 6 2 5 4 6 6 7 6 10 12 9 9 8 7 7 6 6 7 9 6 5 6 10 11 12 13 12 10 10 12 12 14 12 14 16 16 12 9 10 12 11 11 11 12 12 12 14 14 15 13 14 12 12 11 11 12 11 11 10
7 2 5 9 12 13 10 13 14 14 12 7 3 10 10 14 15 3 9 10 13 10 16 15 15 14 15 14 16 16 11 8 9 8 6 3 3 7 8 7 7 5 6 6 6 5 6 10 9 7 9 10 9 10 11 12 12 12 12 13 14 13 10 12 11 11 11 12 13 13 14 14 14 15 17 16 13 13 13 12 12 12 10 12 13 11
4 6 11 11 13 15 16 14 5 3 2 6 6 9 10 9 11 13 8 9 15 13 13 13 17 17 11 13 21 25 23 20 18 17 15 14 13 9 6 8 9 9 10 11 9 7 5 5 8 11 10 9 9 10 11 12 13 12 12 12 11 11 12 11 11 11 12 12 13 13 14 15 16 15 14 14 12 11 11 12 12 13 13 12 12 13
2 8 15 22 25 22 22 22 19 13 13 8 7 9 6 6 7 10 11 16 12 8 16 14 19 14 14 16 22 27 28 26 22 17 15 12 12 14 10 9 13 14 10 3 4 6 9 11 11 9 10 9 11 11 11 10 11 12 13 14 12 10 10 9 11 12 13 13 13 14 15 15 13 13 13 11 11 12 12 12 12 12 11 10 11 11
7 12 16 17 23 24 26 27 24 19 15 15 15 15 17 14 8 11 16 18 15 14 18 14 13 15 17 19 23 26 27 26 24 17 17 15 13 14 14 8 11 14 7 2 6 9 11 12 13 13 11 11 11 11 12 11 10 8 8 8 8 9 12 11 12 12 13 13 14 15 14 12 11 10 11 12 12 12 12 12 11 10 10 10 10 9
5 13 15 19 23 22 22 22 20 21 18 17 17 19 19 18 19 18 22 22 21 21 21 22 22 26 22 21 22 26 26 25 21 15 15 17 21 23 18 14 17 18 10 6 11 14 14 15 14 12 11 12 12 13 13 12 11 11 12 12 11 11 10 11 12 13 13 15 16 14 12 12 11 11 11 12 12 12 12 12 11 11 11 11 10 8
13 11 14 15 14 16 17 18 17 19 19 21 20 20 20 21 22 26 23 20 20 21 22 26 28 28 21 25 26 23 22 21 20 22 24 25 26 23 18 18 20 17 15 13 14 15 14 13 12 12 13 14 14 14 14 14 13 10 10 10 10 12 11 12 13 13 14 16 13 12 11 11 12 12 13 13 12 11 13 13 11 11 10 10 10 11
10 13 10 5 9 13 12 19 21 21 23 24 22 21 21 24 27 23 20 19 19 24 26 27 22 21 21 25 23 21 21 20 22 27 28 25 23 20 17 17 12 11 16 15 15 14 12 12 14 14 15 15 15 14 13 12 11 9 12 12 12 12 11 12 13 14 14 13 11 12 13 13 13 13 13 13 13 13 12 11 11 11 11 11 11 10
3 2 6 9 13 15 14 18 22 23 18 16 19 24 28 28 25 23 23 23 24 24 24 20 23 21 23 15 16 16 18 21 24 25 25 26 25 19 15 12 10 14 16 15 11 11 13 15 15 16 16 14 13 13 15 15 11 12 13 12 12 9 12 13 14 13 12 11 12 13 13 13 14 14 13 13 12 11 12 12 12 12 12 13 11 10
6 10 11 7 12 10 12 18 13 13 18 18 15 26 26 27 26 28 26 28 31 25 22 21 22 17 15 13 16 19 22 25 25 25 23 20 17 15 13 13 13 14 14 11 11 13 14 13 12 13 14 15 15 15 16 13 14 15 12 10 8 12 13 13 12 12 12 12 13 13 13 13 13 13 13 12 12 12 13 13 14 12 10 9 9 10
9 9 12 7 9 11 10 13 13 21 19 12 16 18 26 31 30 32 32 32 31 28 28 26 24 21 21 20 22 24 26 26 25 23 18 13 12 14 18 21 19 13 12 11 11 10 10 12 12 12 12 12 14 12 9 8 9 7 6 9 12 11 12 12 13 12 12 13 13 12 12 12 12 12 11 12 12 12 12 12 10 11 9 9 10 11
15 14 9 8 9 9 9 10 19 15 2 4 5 16 18 24 27 27 29 27 28 26 25 25 24 24 25 27 26 22 21 23 21 15 14 16 14 15 16 17 18 17 12 10 12 13 13 12 12 13 15 14 8 8 8 11 8 8 9 9 12 12 12 13 13 13 11 12 12 13 12 13 12 12 12 12 12 13 13 12 12 13 10 10 8 8
21 16 12 13 10 15 12 15 22 12 14 5 1 5 10 16 15 19 21 23 26 25 23 25 25 24 22 21 20 20 19 16 12 12 5 14 15 14 14 14 14 14 14 13 11 11 12 10 8 10 9 7 7 7 10 9 6 8 8 10 10 11 11 11 13 13 14 13 13 13 13 13 14 14 14 14 14 15 14 14 12 11 9 11 11 12
19 17 13 15 11 13 16 16 13 12 14 12 16 13 17 21 20 20 19 19 4 13 12 15 15 14 14 15 14 13 8 7 11 7 10 15 15 16 13 12 14 15 15 15 15 12 9 8 7 6 5 8 9 10 7 4 7 8 8 9 9 11 12 13 14 14 14 14 14 14 14 14 15 16 15 15 17 16 14 12 10 12 11 13 13 11
15 17 19 19 13 14 16 15 14 16 14 4 9 11 15 13 14 9 6 12 6 13 18 18 18 15 15 16 16 15 10 2 4 7 11 14 15 12 14 14 14 13 14 14 13 13 13 12 10 9 7 4 6 7 4 0 4 7 8 8 10 10 12 15 14 13 16 16 14 13 13 14 15 16 16 17 16 15 16 15 14 11 10 10 10 11
12 12 11 14 11 8 12 14 13 5 6 11 16 16 15 9 6 2 12 2 12 14 15 17 16 15 14 15 14 12 12 9 11 13 15 16 11 10 8 13 14 16 15 14 14 10 9 8 11 11 10 6 5 2 2 3 4 4 5 5 5 9 12 15 16 13 8 8 11 11 12 13 15 15 16 17 14 13 13 11 11 11 11 9 8 9
3 6 9 20 17 22 21 18 11 7 4 13 14 17 17 5 7 5 7 7 9 11 13 12 13 12 12 11 11 10 9 6 11 14 14 13 14 15 13 9 10 10 10 11 12 11 11 11 7 7 6 6 5 0 2 3 4 5 4 5 6 11 14 4 2 3 5 6 8 11 12 11 14 16 13 13 14 12 11 11 12 12 12 12 9 8
8 6 3 6 14 17 15 18 16 5 5 10 15 13 18 6 7 3 12 11 5 12 11 10 11 12 11 8 8 7 9 11 12 12 13 12 12 13 11 13 13 14 12 9 10 8 11 12 10 9 7 3 2 1 3 4 5 4 4 4 10 13 2 4 5 7 7 8 7 8 10 11 9 10 11 11 12 13 11 9 10 12 13 11 12 13
5 7 5 9 7 8 7 11 12 12 5 15 13 10 13 9 8 12 10 4 3 9 13 12 8 11 9 14 13 11 12 12 11 12 14 15 14 14 14 13 13 13 14 15 17 16 13 13 14 13 10 7 2 3 4 4 5 5 4 8 11 2 3 4 6 7 7 8 9 8 8 8 11 11 9 11 11 13 13 11 11 11 12 13 12 13
6 12 7 4 3 4 5 5 1 5 6 4 9 3 9 5 9 10 3 7 7 9 11 11 13 10 9 11 12 14 13 12 12 10 11 13 14 15 14 11 10 11 11 10 9 10 11 13 13 14 11 7 3 2 3 5 5 5 6 12 3 5 5 7 8 9 9 8 9 9 8 8 9 9 9 11 11 11 12 12 11 11 11 12 12 12
2 4 4 10 4 5 5 10 12 14 7 2 1 5 9 11 7 4 2 5 10 11 5 9 13 13 11 10 11 12 13 12 12 12 12 13 14 14 15 16 14 14 14 14 14 13 11 11 14 15 14 10 6 4 4 4 6 6 9 8 6 6 8 7 9 10 10 10 10 11 10 10 10 10 10 11 12 13 12 12 13 12 10 12 11 11
10 16 5 6 8 9 10 10 16 11 7 12 11 7 10 9 3 5 4 9 8 5 6 7 8 10 10 9 10 11 9 13 15 14 12 11 11 12 12 14 15 14 14 14 14 13 11 12 12 12 13 14 8 6 5 6 7 8 9 2 6 6 8 9 10 10 10 10 9 10 11 13 11 11 11 13 11 12 12 14 14 12 11 11 11 11
6 5 9 7 9 12 14 5 9 8 16 18 14 5 4 5 5 3 2 3 4 5 6 6 7 8 9 8 9 12 16 14 14 14 14 14 14 14 14 14 14 14 14 15 15 14 13 11 13 14 13 14 11 6 7 7 9 11 6 5 7 8 9 10 10 10 9 11 10 10 12 14 11 11 10 11 10 9 10 11 12 13 13 12 13 11
7 2 10 8 13 10 13 12 16 18 17 12 11 14 4 0 3 4 3 2 2 2 3 4 6 7 8 8 9 11 14 14 14 14 15 15 15 15 14 14 15 15 14 11 13 14 14 14 14 15 15 14 13 8 8 9 10 11 8 6 8 9 10 11 12 12 12 12 11 10 12 13 16 17 13 13 13 13 12 8 8 8 10 11 14 14
8 6 9 4 12 12 15 13 13 12 11 15 13 4 3 3 2 2 1 2 3 4 6 5 5 8 9 10 11 11 12 14 14 14 15 15 15 14 14 15 14 14 15 15 13 11 12 14 16 16 16 16 14 11 9 11 12 11 11 10 10 11 12 11 11 11 11 11 10 11 10 10 11 11 11 11 10 8 10 10 7 6 2 9 10 13
6 9 13 9 10 11 10 12 6 11 13 14 10 3 4 3 3 4 4 4 6 6 7 8 9 8 9 10 11 10 12 14 15 13 14 14 15 16 17 17 16 16 15 14 13 13 14 14 15 16 17 16 15 13 13 13 12 10 10 9 10 12 13 12 11 11 11 11 11 10 11 10 11 11 11 12 10 11 8 10 10 9 10 11 11 10
10 11 8 9 10 13 11 11 10 9 11 8 9 1 3 2 4 3 3 4 5 6 6 8 10 11 11 11 10 12 12 13 15 15 14 13 15 15 16 17 18 17 18 16 15 15 15 15 15 16 17 17 15 14 14 14 12 10 9 10 11 13 13 12 11 10 10 11 12 13 14 12 12 11 11 11 10 7 10 10 10 16 14 10 12 12
Wind_Direction
140 175 175 199 227 223 215 204 217 230 231 253 266 262 252 256 265 262 271 239 202 204 210 222 233 240 249 249 246 250 263 263 250 241 244 245 249 249 251 249 247 246 245 254 201 199 200 197 192 185 174 175 176 173 170 170 175 173 172 169 178 176 171 166 166 170 166 168 165 171 184 184 183 181 176 179 178 179 175 168 169 168 167 166 163 165
132 199 207 216 226 224 216 215 229 250 244 243 251 257 264 243 264 252 262 238 218 190 253 228 244 245 247 252 253 253 251 256 251 244 241 245 242 248 251 255 253 249 258 266 220 210 201 194 184 171 172 163 169 181 171 177 177 173 172 178 176 174 177 178 176 174 178 181 182 177 185 180 180 174 177 184 188 182 175 167 169 169 167 165 167 170
211 215 219 223 230 245 238 213 217 219 234 242 243 252 269 258 260 273 252 245 240 175 260 247 252 250 250 254 258 250 235 243 248 241 244 244 246 249 252 253 254 254 252 246 240 202 198 191 180 174 178 182 180 175 179 176 170 175 179 183 176 179 179 182 179 176 184 182 178 179 176 177 176 200 187 168 174 165 169 172 170 167 167 168 172 173
259 234 235 222 227 241 254 229 239 253 245 243 250 254 246 255 279 284 221 339 198 184 236 227 254 264 275 268 261 252 239 239 244 247 250 248 251 250 250 252 256 257 251 237 221 206 197 187 182 178 181 183 176 175 175 175 178 179 184 182 180 180 181 181 185 184 178 170 153 127 129 137 140 170 158 144 142 163 155 173 176 180 172 174 173 172
235 201 207 207 217 219 240 234 228 244 261 239 233 237 254 252 244 233 271 310 284 297 290 299 285 270 230 257 261 254 241 248 253 256 256 258 253 250 256 265 259 253 245 234 219 212 188 183 190 189 184 169 179 179 180 180 182 185 186 182 179 179 183 184 181 178 161 143 133 118 105 113 99 84 143 154 185 186 181 172 187 189 174 171 168 172
257 251 166 194 218 226 236 250 217 209 259 254 219 201 235 242 255 257 274 314 321 311 241 181 309 268 198 221 240 246 287 238 241 241 249 252 255 257 254 250 257 255 230 215 208 199 194 193 184 181 174 180 184 186 187 183 185 181 180 178 180 180 183 184 181 174 166 170 165 158 158 172 183 182 178 193 191 185 190 194 176 166 178 173 171 173
239 205 198 212 200 224 220 230 218 187 241 261 256 204 226 233 241 258 276 346 277 256 299 132 201 288 147 233 232 246 240 248 254 228 240 245 250 251 249 251 247 252 230 237 222 198 187 193 181 186 187 188 187 193 178 182 185 180 176 179 181 182 184 182 179 175 173 176 182 184 186 184 188 191 206 198 189 190 189 165 176 180 175 175 170 177
204 226 190 216 216 221 226 248 231 187 224 256 233 188 210 233 239 248 235 200 248 216 270 38 119 280 291 230 222 203 225 237 248 249 247 242 245 250 248 251 253 236 205 205 208 198 195 186 185 190 194 188 194 179 176 180 180 181 179 179 183 184 184 183 178 182 183 183 186 189 193 193 198 200 197 185 187 180 170 173 178 172 180 176 176 173
182 219 190 215 218 204 216 227 159 174 192 234 250 163 199 209 224 208 194 216 237 1 283 180 109 295 260 254 196 197 222 236 242 247 244 237 240 249 250 252 257 224 213 199 197 197 191 194 199 194 189 194 179 176 180 182 183 181 179 180 181 186 185 184 183 185 191 191 189 191 189 199 208 199 189 171 167 172 171 175 174 177 177 177 179 178
313 175 212 177 159 218 224 33 169 176 219 261 120 79 80 69 71 83 159 43 326 19 263 170 163 219 283 262 196 165 198 213 229 234 237 231 229 241 247 254 259 238 228 214 205 195 197 198 197 193 181 178 188 181 180 179 176 181 177 182 184 191 188 185 184 188 192 195 190 193 197 200 196 185 168 170 174 177 173 180 179 179 178 180 180 182
231 317 165 142 207 215 124 153 97 306 232 98 75 73 5 26 23 20 71 96 22 258 254 166 193 182 264 293 163 120 206 200 213 231 250 248 243 249 252 247 256 249 223 218 208 203 202 195 180 163 182 187 178 182 179 181 182 180 183 185 189 193 187 187 189 188 193 194 196 200 199 198 193 185 174 174 184 178 178 185 183 181 183 180 185 178
250 74 180 250 112 100 113 89 355 104 93 123 126 123 30 328 17 31 343 49 195 268 210 182 184 182 230 319 284 196 9 201 183 209 223 234 239 239 243 248 247 240 218 198 188 195 176 152 173 178 188 183 183 176 186 188 183 186 188 186 192 192 193 191 191 191 195 195 201 204 199 199 197 184 187 189 187 186 186 185 182 179 173 184 179 180
251 232 206 108 217 156 153 124 321 10 14 124 82 64 232 268 24 321 32 292 200 238 217 209 177 321 238 241 171 277 233 221 212 203 213 218 234 234 242 251 250 233 184 180 189 180 181 185 181 190 191 177 185 193 189 187 187 187 189 191 192 200 195 194 190 195 195 196 203 203 200 202 193 194 195 194 191 187 187 183 179 176 183 175 178 187
274 290 176 225 28 218 130 192 223 325 213 140 165 167 138 257 234 262 253 241 305 279 237 213 172 238 281 298 213 242 247 221 202 210 220 216 224 233 228 240 247 214 187 191 186 186 189 192 193 192 188 191 191 191 189 188 188 190 193 195 198 205 194 195 194 198 196 202 204 203 204 199 192 199 197 197 194 189 189 182 184 183 183 182 188 183
298 305 224 135 237 181 183 202 206 204 153 194 113 153 198 172 145 239 229 255 252 259 293 222 113 234 82 248 207 204 224 227 212 211 215 222 224 228 227 247 268 176 209 193 187 192 194 198 193 191 192 192 193 189 187 190 194 188 197 198 204 203 198 196 199 196 203 206 202 202 205 202 198 199 198 201 195 186 186 186 184 187 183 185 186 186
219 242 267 178 236 150 183 216 195 94 74 189 157 83 57 234 175 233 241 264 304 342 301 179 215 199 225 251 285 283 305 287 230 223 222 228 240 242 239 245 228 199 197 193 196 201 208 200 195 193 193 196 189 187 190 195 192 195 203 202 205 204 199 198 197 201 205 205 199 199 202 205 200 199 197 199 195 193 188 185 185 185 185 184 177 176
287 257 294 164 20 165 186 29 193 150 216 228 112 187 212 136 185 263 324 298 113 335 264 147 272 275 306 274 222 234 220 240 223 227 225 232 235 233 232 242 207 210 198 194 202 204 204 198 199 198 195 190 188 187 195 197 195 200 200 200 205 206 200 200 203 205 204 203 198 202 203 199 200 198 198 199 195 189 186 183 185 183 182 171 172 172
238 261 27 158 233 288 175 80 87 5 134 102 189 239 115 91 120 139 211 320 272 227 272 241 252 291 322 289 356 42 292 262 255 233 225 226 227 227 232 229 203 203 204 204 210 214 206 202 199 200 201 198 197 197 197 200 202 207 205 203 204 202 201 206 204 204 201 200 203 202 201 203 203 202 201 194 190 183 178 183 180 172 170 181 173 168
218 268 250 261 27 304 343 119 340 337 60 147 188 273 134 253 261 271 96 248 264 257 268 276 281 264 247 266 288 292 235 233 230 233 226 231 235 233 238 235 230 218 194 214 218 211 207 201 204 202 204 207 207 204 204 205 198 203 210 212 207 206 208 207 204 205 205 203 207 204 202 199 200 201 199 193 180 176 183 184 181 178 177 161 166 166
119 252 255 330 136 353 359 105 219 200 319 67 39 350 244 121 187 154 197 181 168 258 273 275 285 276 251 207 262 221 225 222 216 227 231 226 229 233 238 229 220 222 219 215 208 209 210 210 207 203 204 203 203 199 202 197 192 202 208 203 210 216 212 206 205 204 205 207 205 202 197 198 199 197 194 188 178 182 188 184 177 173 169 175 164 169
259 169 258 60 299 310 223 182 200 167 192 243 250 280 331 259 223 119 308 172 219 247 237 267 275 276 270 224 224 247 228 221 213 216 226 228 236 240 238 226 216 213 219 216 211 214 213 215 215 212 208 211 213 214 202 193 198 205 195 204 208 207 207 207 209 203 209 203 206 200 198 200 192 193 188 182 186 184 184 180 178 178 172 154 173 163
282 174 248 77 323 209 252 172 190 193 188 188 185 207 202 199 260 259 256 189 237 230 242 242 255 274 272 273 210 242 233 219 223 208 224 224 224 235 238 232 218 209 211 211 211 205 210 218 225 226 217 209 195 214 209 208 205 198 198 206 206 206 208 209 210 205 206 199 201 203 201 195 187 183 181 185 185 187 182 179 179 170 160 173 168 167
172 171 253 242 218 240 255 270 267 219 204 190 169 223 201 210 210 224 254 230 253 240 256 246 266 241 265 92 220 235 232 225 223 201 227 241 235 237 239 250 272 252 222 208 207 210 214 212 211 208 204 201 203 208 211 205 199 203 205 205 205 202 212 209 212 209 205 198 196 200 193 179 183 180 181 185 188 191 185 180 172 168 169 170 166 172
128 221 231 256 265 306 301 272 189 215 187 347 279 238 180 223 211 226 236 239 255 244 228 242 242 256 264 258 287 274 226 216 228 210 221 239 239 236 242 251 239 235 240 244 240 231 221 220 218 200 207 213 216 219 215 210 211 209 206 203 200 206 213 208 203 196 193 195 196 186 176 182 181 179 185 190 191 191 185 177 174 170 171 169 166 171
242 236 205 248 276 305 301 321 298 284 79 214 227 223 224 236 226 228 248 84 246 232 245 248 253 248 253 261 283 335 330 281 257 256 243 244 243 236 232 229 230 236 235 215 226 233 227 209 199 210 212 211 216 219 218 216 216 211 211 201 201 210 210 203 194 188 191 189 187 181 182 184 182 186 188 194 191 190 180 179 173 173 172 166 170 172
229 234 179 222 227 237 229 233 235 249 227 231 242 245 225 214 220 208 232 223 244 232 233 238 254 248 262 285 287 282 280 282 282 283 285 264 265 301 306 297 283 275 262 255 248 249 232 219 220 226 223 223 222 215 216 219 218 216 212 210 207 209 199 198 186 191 185 182 182 186 186 186 186 191 194 193 188 185 180 176 175 173 174 172 171 170
235 201 223 220 225 232 234 238 244 103 65 192 233 227 234 225 217 217 229 229 230 237 236 240 246 257 269 285 283 281 278 274 269 265 270 288 293 284 264 268 273 269 258 249 240 242 265 282 247 230 230 224 221 218 220 217 218 215 213 215 207 205 196 190 181 184 184 184 189 186 190 189 193 192 191 188 184 177 177 179 177 175 177 176 172 172
150 222 215 225 228 233 237 242 247 251 251 241 243 249 243 232 224 213 217 236 236 262 252 235 246 257 250 253 261 268 269 268 266 267 268 261 255 259 252 249 256 256 254 278 293 273 256 250 252 247 237 230 231 230 229 226 219 214 209 213 206 197 188 181 181 184 186 184 189 192 194 195 190 187 186 181 176 178 180 177 178 180 173 169 173 175
213 233 227 221 233 229 232 239 244 248 244 250 252 258 258 246 230 226 232 237 234 232 250 252 254 250 246 242 251 258 265 268 269 272 271 266 263 264 259 229 241 254 255 251 260 255 245 246 246 243 242 235 236 237 236 233 228 221 223 220 200 190 194 181 180 183 185 187 191 197 194 186 183 180 176 176 176 177 178 179 177 172 169 171 172 172
206 237 234 223 236 229 230 236 239 244 250 251 249 252 252 255 251 239 244 244 239 245 248 254 254 253 252 255 250 254 262 271 277 276 274 271 265 259 256 254 251 254 251 217 237 239 237 236 239 243 243 244 239 237 238 234 227 217 214 212 200 195 190 168 185 183 187 191 197 193 184 181 176 175 172 173 178 178 176 176 174 172 170 172 168 161
205 230 201 230 237 238 232 237 236 240 241 247 246 246 248 254 254 250 250 252 259 260 257 254 251 253 250 251 253 258 263 271 283 281 272 266 265 266 263 258 261 269 273 247 235 236 232 233 236 239 239 240 237 233 233 230 225 218 217 214 200 195 185 180 184 190 190 197 194 182 175 174 176 169 177 179 175 176 175 175 172 170 167 165 162 161
195 247 238 242 242 242 226 236 235 238 235 236 241 245 249 247 249 249 251 245 243 249 250 250 250 253 251 249 255 259 267 271 272 270 270 270 270 269 264 264 268 258 253 244 233 237 238 236 237 236 236 236 234 232 230 231 224 207 216 208 201 193 177 184 188 191 196 194 179 178 177 178 172 176 179 174 179 175 174 168 168 168 168 164 163 165
201 238 221 227 243 243 231 231 234 236 240 242 232 236 239 243 245 249 245 247 241 244 251 249 248 242 250 254 263 262 259 257 256 258 264 267 268 269 270 269 247 237 241 241 230 228 230 234 234 233 235 238 235 229 228 224 216 211 216 202 200 163 177 187 190 192 191 184 181 183 180 175 176 178 177 179 172 170 168 169 169 170 168 173 169 160
219 225 237 213 249 244 227 240 236 237 223 224 210 218 222 237 242 243 243 240 242 234 239 235 252 260 264 253 248 251 253 252 248 250 251 260 278 286 281 265 249 246 246 242 230 222 228 234 239 239 236 235 233 224 225 215 211 220 211 192 165 174 183 184 191 188 188 182 186 184 179 176 176 178 176 169 169 169 172 172 176 173 169 160 157 163
222 222 238 224 247 247 231 241 239 230 237 226 215 212 216 228 235 240 243 240 244 245 250 254 251 248 250 251 245 242 244 251 256 259 268 280 276 275 276 277 276 270 263 255 248 240 236 234 240 246 249 246 235 229 225 229 218 210 158 164 173 181 177 187 185 186 184 186 186 178 176 175 175 173 168 168 168 170 173 173 167 164 162 160 163 164
235 229 237 233 236 256 236 222 244 244 125 332 200 208 213 229 232 242 252 252 255 249 247 250 250 244 242 245 248 251 253 254 262 275 281 282 300 310 307 303 305 304 294 274 268 267 263 255 238 237 241 242 231 231 217 226 210 180 191 165 175 177 182 181 184 187 181 185 183 179 176 171 170 168 166 167 168 171 173 173 170 165 160 156 156 154
226 233 224 257 206 247 239 235 246 281 280 208 117 228 192 218 219 222 245 246 242 247 244 249 249 253 252 253 258 262 266 273 275 277 312 15 4 3 2 350 342 337 336 328 314 295 287 282 260 253 259 266 241 231 227 222 186 182 160 168 177 175 180 178 185 188 187 187 180 177 174 171 169 169 169 170 171 176 175 170 167 163 159 160 167 166
219 227 218 236 225 216 245 250 256 247 243 244 227 223 214 220 219 224 230 257 359 332 314 283 285 308 332 345 342 306 283 285 275 263 28 358 11 346 347 350 348 347 347 341 339 332 324 313 311 300 256 254 258 249 251 186 176 162 166 176 171 170 182 184 195 191 187 187 181 178 174 173 171 172 172 173 178 177 174 167 164 168 169 168 168 174
249 236 233 227 237 226 235 235 237 251 256 280 269 233 228 225 225 244 280 258 39 18 33 41 39 31 22 7 353 3 34 341 327 351 346 357 340 347 341 336 339 341 341 344 345 337 330 334 325 321 340 334 325 336 350 346 151 156 179 180 181 182 182 197 197 186 191 190 179 174 172 172 173 173 174 178 179 173 170 172 171 166 166 172 170 172
241 234 243 257 299 263 272 254 253 241 287 3 341 341 327 314 303 330 254 240 22 22 26 26 31 26 15 6 0 18 26 359 330 325 331 322 323 317 325 326 329 335 334 336 338 337 324 335 354 359 353 342 316 329 87 112 146 179 185 190 175 189 204 207 205 199 175 156 166 170 170 174 175 176 176 177 171 171 170 160 156 164 166 165 161 157
284 286 242 253 243 242 237 247 253 270 44 8 351 338 328 326 79 217 249 6 4 16 11 13 11 9 11 3 13 353 336 309 292 293 302 307 313 318 317 318 313 315 316 325 324 331 337 336 348 344 325 317 321 45 114 128 148 193 185 172 184 213 218 207 97 128 160 157 161 169 175 174 178 175 175 170 167 162 160 165 163 158 162 158 153 151
322 288 263 256 256 258 255 252 249 266 93 7 353 14 350 330 252 21 332 298 338 360 352 4 349 356 349 351 338 318 297 295 289 291 297 302 305 302 306 312 319 319 320 318 321 330 330 325 323 325 326 305 245 189 169 162 180 198 179 175 215 227 133 134 148 135 144 162 169 169 171 171 167 166 164 159 155 161 162 161 159 162 160 156 156 159
292 308 296 297 301 298 278 269 251 241 42 26 351 8 45 49 295 294 302 324 344 348 338 337 340 336 347 326 318 304 299 301 301 302 304 309 313 313 316 321 323 324 322 328 330 332 333 325 320 320 305 297 225 175 182 171 195 198 188 208 230 161 138 131 142 145 147 151 159 166 167 165 161 159 158 160 162 159 159 157 157 162 161 159 158 159
280 277 275 263 329 289 294 289 307 66 313 1 47 338 321 292 279 277 297 312 321 341 331 323 328 323 322 319 313 310 307 307 308 310 312 310 313 316 315 318 318 319 319 312 310 310 321 318 313 310 309 304 264 214 190 179 207 211 209 234 184 152 143 150 149 149 150 154 159 156 157 156 154 152 154 157 156 159 157 161 162 162 167 165 162 159
145 145 244 275 297 326 276 298 299 317 340 199 90 280 282 290 270 205 259 294 329 324 324 323 316 324 326 321 314 311 310 316 315 318 322 322 321 323 326 327 330 328 326 325 322 324 321 314 310 309 307 306 287 244 214 205 209 221 227 234 163 167 161 154 153 155 162 162 161 160 154 149 156 157 156 161 160 161 164 162 163 163 171 167 168 163
320 305 295 269 268 276 261 256 284 296 299 300 293 297 304 290 178 212 295 330 308 304 309 307 320 326 333 337 330 320 318 319 320 322 323 322 319 317 320 321 321 320 319 319 318 318 316 312 308 305 304 302 291 260 243 227 214 224 237 156 161 164 163 156 159 166 167 163 161 162 154 152 156 160 163 164 169 170 168 166 169 168 167 172 170 167
288 293 294 280 304 315 285 310 274 297 304 303 305 305 197 201 213 238 293 307 326 329 334 325 330 333 327 327 328 320 317 319 318 315 318 318 316 312 310 311 309 310 313 314 311 312 312 312 305 303 301 296 294 262 256 243 234 236 233 169 173 166 163 163 164 163 161 167 164 158 163 162 164 163 166 170 167 169 169 170 172 170 171 173 170 170
277 332 308 286 283 261 280 302 309 303 283 286 312 320 317 164 48 45 42 16 323 325 321 319 322 321 318 320 314 309 308 311 313 315 314 312 310 310 308 307 307 307 304 301 303 306 305 303 302 300 299 293 288 269 246 245 245 238 225 196 174 169 164 170 171 172 174 173 170 172 176 176 169 167 171 176 172 171 174 177 179 175 179 173 172 164
270 320 266 287 287 294 288 281 263 272 298 302 304 333 57 45 25 1 354 341 322 347 341 337 336 317 320 311 311 309 304 306 308 307 307 307 307 305 304 303 303 303 305 307 306 306 304 305 302 298 294 289 287 280 251 244 241 233 212 198 181 172 173 179 177 173 171 168 167 177 178 175 177 180 171 168 168 173 177 169 166 167 96 183 174 171
285 262 265 284 284 274 275 291 311 308 302 308 318 110 41 0 15 350 342 2 350 349 337 334 324 317 310 310 313 315 312 309 310 313 307 304 301 304 307 308 306 306 305 304 306 306 302 297 293 293 291 287 286 281 269 255 247 234 215 192 181 177 181 179 173 173 176 174 175 173 173 177 176 177 174 172 167 162 160 186 184 172 172 173 188 191
235 251 259 256 254 268 265 266 281 283 284 259 285 97 146 1 357 6 348 340 335 333 330 330 317 318 313 311 319 313 307 306 305 308 302 300 302 304 305 307 309 309 307 307 305 301 295 292 291 288 286 285 283 277 267 259 252 236 214 196 187 185 187 172 176 183 178 174 186 183 179 176 175 179 176 174 164 143 144 154 177 181 184 178 175 181